Overview Statistics Trail Chart Weather Telemetry Raw packets
 

This is the latest recevied weather packets stored in our database for station/object KO4DYK. If no packets are shown the sender has not sent any weather packets the latest 10 day(s).

<< 105 106 107 108 109 110 111 >>
Time Temp. Humidity Pressure Rain* Wind** Luminosity Snow
1787860958 35° C 53% 1015.5 hPa 0 mm - 432 W/m² -
1787860653 34.44° C 54% 1015.6 hPa 0 mm - 714 W/m² -
1787860348 34.44° C 54% 1015.6 hPa 0 mm - 298 W/m² -
1787860043 36.11° C 49% 1015.4 hPa 0 mm - 306 W/m² -
1787859738 35° C 50% 1015.7 hPa 0 mm - 392 W/m² -
1787859438 33.89° C 55% 1015.6 hPa 0 mm - 769 W/m² -
1787859133 33.33° C 55% 1015.5 hPa 0 mm - 249 W/m² -
1787858830 33.89° C 56% 1015.7 hPa 0 mm - 278 W/m² -
1787858525 33.89° C 56% 1015.6 hPa 0 mm - 721 W/m² -
1787858224 33.89° C 54% 1015.6 hPa 0 mm - 255 W/m² -
1787857920 34.44° C 57% 1015.8 hPa 0 mm - 675 W/m² -
1787857616 34.44° C 56% 1015.7 hPa 0 mm - 665 W/m² -
1787857316 35° C 55% 1015.8 hPa 0 mm - 656 W/m² -
1787857014 35.56° C 54% 1015.7 hPa 0 mm - 673 W/m² -
1787856714 35.56° C 54% 1016 hPa 0 mm - 684 W/m² -
1787856409 35° C 55% 1016 hPa 0 mm - 653 W/m² -
1787856104 35° C 55% 1016 hPa 0 mm - 185 W/m² -
1787855799 33.89° C 59% 1016.2 hPa 0 mm - 671 W/m² -
1787855494 32.78° C 58% 1016.4 hPa 0 mm - 642 W/m² -
1787855193 33.89° C 57% 1016.6 hPa 0 mm - 629 W/m² -
1787854885 34.44° C 56% 1016.6 hPa 0 mm - 584 W/m² -
1787854585 33.33° C 56% 1016.4 hPa 0 mm - 628 W/m² -
1787854279 32.78° C 58% 1016.7 hPa 0 mm - 657 W/m² -
1787853975 33.33° C 58% 1016.7 hPa 0 mm - 689 W/m² -
1787853674 32.78° C 60% 1016.8 hPa 0 mm - 657 W/m² -

* Rain latest hour (hover to see other rain measurements)
** Current wind speed in m/s (hover to see current wind gust speed)